Location: Härggis
(46.9540°N, 8.4897°E)
Time: 23:32:33
(UTC+00:00)

GP-B - Pass Details

Date: 27 May 2022
Orbit: 630 x 634 km, 89.8° (Epoch: 02 July)

Event Time Altitude Azimuth Distance (km) Brightness Sun altitude
Rises 01:11:52 0° 353° (N) 2,941 7.5 -17.5°
Reaches altitude 10° 01:14:15 10° 344° (NNW) 2,027 6.4 -17.3°
Maximum altitude 01:18:14 33° 280° (W) 1,064 4.1 -17.0°
Enters shadow 01:19:43 26° 243° (WSW) 1,241 4.1 -16.9°
